Presure
276 261 258 246 173 223 136 195 140 137 215 297 291 290 318 295 270 244 295 174 225 126 129 241 243 233 122 177 220 125 127 247 243 244 245 246 162 220 95 194 191 122 120 117 151 168 170
263 252 239 249 247 159 238 178 125 173 271 289 297 304 302 293 210 220 181 239 240 244 242 239 240 170 120 132 122 123 119 165 151 208 237 237 241 189 244 155 195 203 195 175 179 160 163
268 247 247 210 233 229 236 209 107 255 291 300 302 323 252 257 250 133 234 237 166 247 232 127 233 225 127 232 131 123 130 233 227 236 237 234 233 234 106 235 244 248 190 188 197 197 190
263 257 219 213 211 173 211 235 236 293 292 352 347 254 253 259 240 240 214 132 245 245 236 222 234 229 237 228 228 149 228 233 191 229 228 235 237 242 242 248 237 219 237 144 215 213 208
255 246 233 178 229 228 197 228 283 283 315 342 321 244 243 240 236 231 194 133 236 243 240 239 168 127 222 223 224 226 230 232 233 236 249 261 254 250 248 249 254 252 252 253 249 214 131
248 242 206 225 228 206 224 189 277 295 301 310 287 229 160 233 235 200 189 234 224 228 252 120 123 225 222 218 226 228 242 155 157 237 206 209 237 240 237 234 234 227 226 227 226 245 257
263 235 180 229 227 220 254 279 298 295 287 280 266 239 236 231 237 232 236 238 246 225 229 125 123 224 223 216 225 233 218 233 234 234 237 233 230 229 225 228 230 229 254 253 226 214 223
169 226 220 171 219 222 276 309 292 278 256 249 222 227 220 132 221 225 228 217 226 164 138 120 116 231 232 217 232 231 170 139 168 225 242 230 229 232 227 224 228 242 240 227 171 210 234
237 224 199 225 221 269 300 290 258 262 248 231 223 228 229 226 191 228 226 226 125 217 185 174 216 220 225 222 222 223 213 220 222 220 231 187 228 228 245 238 204 145 154 239 232 224 226
228 218 213 219 215 291 253 273 252 232 227 228 221 220 219 219 224 215 219 222 219 211 218 226 221 211 216 221 150 153 156 218 219 222 222 223 212 220 152 148 150 228 235 228 231 229 228
209 214 216 211 275 262 255 243 254 241 247 221 223 219 206 218 223 218 213 225 230 163 208 214 214 214 211 212 220 215 217 216 215 217 217 216 155 231 230 230 231 232 229 227 227 225 144
222 127 214 241 303 254 254 248 228 228 222 219 219 204 216 215 224 230 222 214 192 135 187 213 216 216 214 215 212 211 211 211 210 209 225 225 225 243 244 242 234 233 229 195 225 223 213
216 218 199 275 267 241 243 233 225 215 217 204 206 210 213 225 219 207 202 203 202 202 132 213 217 212 210 208 209 206 204 202 214 219 222 225 245 232 230 236 252 256 245 237 238 241 234
218 206 234 250 229 242 225 227 212 187 213 222 214 223 226 210 201 203 198 198 198 206 205 216 207 206 205 200 201 201 208 205 217 233 239 235 237 242 245 253 253 250 237 236 238 240 245
217 195 267 243 246 243 227 217 213 207 203 202 200 211 204 202 176 110 188 200 180 207 209 205 206 200 201 204 204 197 204 215 208 219 223 221 214 209 210 211 206 201 202 199 202 199 213
211 238 265 222 241 216 224 216 207 204 208 210 194 209 209 207 194 198 196 197 205 211 203 203 201 199 203 194 205 202 215 203 207 220 211 209 209 209 208 202 202 203 205 204 202 201 201
200 248 243 228 239 221 213 208 216 213 153 201 210 195 202 192 194 193 191 196 198 207 206 199 202 193 196 198 194 197 187 205 200 202 190 201 201 197 196 195 194 193 187 186 192 194 192
207 243 261 231 208 213 208 217 209 196 207 197 185 198 196 195 191 200 201 200 209 205 200 198 191 198 196 191 196 193 193 200 204 196 197 199 193 196 195 196 198 196 193 196 197 197 189
216 241 236 225 221 229 217 208 205 204 196 184 195 198 193 187 195 199 215 216 205 200 194 192 196 191 194 189 190 188 195 188 202 195 201 197 191 190 187 188 189 187 190 186 185 182 182
221 239 234 216 223 226 204 205 206 203 194 193 178 192 186 198 203 193 224 207 200 198 193 193 193 191 194 191 190 193 187 193 194 190 194 193 189 189 191 189 189 192 188 187 186 187 190
220 236 231 220 227 225 210 211 201 193 197 183 187 190 201 199 186 223 209 201 198 196 193 196 194 190 193 194 197 194 189 189 185 181 193 189 187 187 189 188 187 185 201 199 211 201 204
213 236 233 229 214 222 212 197 198 189 189 197 186 188 182 189 201 216 202 202 199 198 196 189 196 193 187 190 191 195 197 196 188 186 186 189 190 190 190 191 194 194 196 198 210 214 187
209 236 211 220 228 210 196 197 198 194 181 183 195 192 203 194 217 212 201 200 197 197 197 190 197 189 195 196 188 190 191 196 197 192 191 197 193 188 193 193 195 196 203 204 202 204 196
205 210 237 216 232 197 202 201 191 194 177 193 193 187 190 200 220 213 201 201 195 198 195 191 190 192 195 195 191 189 189 184 181 182 190 186 193 187 185 195 191 187 196 209 196 210 191
204 201 219 219 216 192 210 185 192 193 181 184 198 193 205 204 201 202 199 198 199 197 199 206 208 203 192 193 192 188 188 183 177 180 180 182 180 193 191 190 195 181 193 199 203 202 167
207 204 237 230 205 201 215 192 203 195 182 198 178 185 192 198 192 194 194 187 192 195 196 198 200 218 214 206 197 187 185 185 185 184 179 180 189 197 188 182 187 182 195 202 206 189 169
209 197 221 233 226 205 202 194 189 204 187 192 190 186 186 186 194 188 187 185 187 193 198 194 196 196 197 202 203 202 202 203 203 203 198 190 186 184 189 166 193 198 193 212 192 186 178
211 202 196 230 229 218 206 194 190 187 201 191 197 193 189 188 183 185 183 183 185 184 196 188 189 192 197 198 195 194 194 193 199 202 199 210 216 213 181 169 195 204 203 191 184 185 178
203 209 204 232 228 224 216 213 194 190 194 189 183 201 194 195 198 189 183 193 194 186 193 200 191 198 197 193 192 197 200 198 199 202 209 215 212 218 192 188 200 200 203 184 163 163 172
Wind_Speed
35 31 28 29 39 29 41 34 37 39 30 29 27 24 20 16 22 24 21 27 30 32 30 32 33 32 35 31 36 37 38 47 50 51 56 62 56 82 29 100 106 47 46 45 65 72 78
33 29 28 26 28 39 27 36 39 31 32 28 29 21 16 17 24 24 22 25 26 28 28 29 31 35 33 34 34 38 38 40 42 48 53 57 61 52 67 43 97 112 111 91 95 81 86
33 32 26 31 28 28 25 28 30 29 26 27 20 16 24 26 25 28 23 25 36 26 25 34 28 28 35 32 37 38 43 39 42 46 49 53 57 61 27 67 63 63 89 91 106 111 113
32 33 31 28 31 35 26 21 20 23 23 13 15 23 24 26 25 25 23 30 23 24 24 24 27 26 27 29 30 39 32 35 41 41 43 47 49 50 50 51 56 71 60 47 95 90 93
36 32 30 37 25 23 23 19 20 18 10 9 22 24 24 26 25 25 22 29 22 22 23 24 24 29 25 26 28 29 30 32 33 35 35 34 34 35 37 38 38 40 43 47 51 39 53
34 34 32 28 23 24 19 33 14 10 22 28 29 25 25 23 23 21 21 22 22 21 22 27 26 22 23 24 25 26 26 36 35 30 32 34 33 33 33 34 36 38 40 43 46 44 36
35 34 35 26 22 20 24 14 16 18 34 39 35 27 24 23 23 23 23 24 26 25 25 29 27 21 24 22 24 24 22 24 25 26 28 28 29 31 32 35 38 40 30 31 46 47 53
42 34 33 33 23 19 19 18 26 30 29 28 24 25 24 26 22 22 24 25 20 22 23 25 26 22 23 22 21 21 29 33 30 25 21 28 28 28 31 31 29 27 29 34 48 41 35
42 38 33 25 21 20 20 30 31 34 34 29 26 27 26 25 20 24 25 25 27 20 24 23 20 22 22 20 22 22 18 22 23 22 19 28 22 23 20 24 31 45 47 26 30 35 34
42 39 33 28 25 25 27 39 39 30 31 31 28 26 24 23 25 23 24 24 24 21 20 24 24 20 20 23 28 29 30 20 18 17 18 19 22 23 42 43 45 24 23 25 27 29 27
45 39 32 32 24 36 37 35 38 39 40 32 31 29 24 26 25 22 21 25 29 24 23 22 22 22 20 21 18 17 15 13 13 13 15 17 36 18 20 22 22 23 23 25 28 28 54
45 32 36 26 30 41 44 41 35 38 35 33 31 26 27 25 29 31 30 27 26 28 24 23 23 23 20 18 17 14 12 11 13 16 13 14 16 15 18 20 24 25 25 35 28 28 31
46 38 41 31 47 40 45 39 39 35 34 30 27 28 28 32 35 27 25 24 23 21 31 21 20 20 17 15 12 12 13 16 13 13 13 13 9 13 14 14 15 21 23 24 27 29 31
44 45 36 41 38 46 43 43 38 31 34 34 33 33 34 35 28 29 22 21 20 20 19 20 20 19 16 16 15 17 14 14 9 6 3 4 2 3 4 7 7 8 12 15 19 24 26
46 46 44 47 48 52 47 44 42 39 36 34 32 34 35 32 31 30 23 23 20 21 22 22 19 19 17 15 15 17 12 9 10 7 5 4 6 10 8 7 11 16 17 19 21 24 23
49 45 51 47 53 46 50 46 43 39 38 38 33 36 37 38 29 28 24 21 21 24 23 22 21 20 17 20 13 12 9 13 10 6 8 8 8 8 10 14 14 14 15 19 21 26 29
52 44 50 49 56 51 50 46 45 44 30 39 40 35 36 31 29 26 24 24 23 26 24 23 22 22 20 16 18 17 21 13 16 14 23 12 12 15 17 18 20 20 27 31 29 30 31
52 45 53 53 50 51 50 51 50 44 44 41 35 38 36 32 30 28 27 25 28 28 26 25 25 20 21 23 19 20 19 17 15 18 17 15 21 18 21 22 21 22 27 30 31 31 35
52 47 53 54 50 58 54 55 51 49 46 38 39 39 35 31 29 26 29 31 32 30 28 27 24 27 25 26 24 25 20 23 17 21 18 20 25 24 28 29 28 28 29 35 38 43 46
46 48 52 55 56 59 52 54 54 51 44 42 36 38 32 32 31 28 33 34 34 32 31 30 30 31 27 27 27 23 26 22 22 24 24 26 29 30 30 32 33 32 36 40 42 46 51
47 48 53 57 61 61 59 55 54 49 48 40 39 37 34 35 31 34 34 36 35 34 33 32 32 33 29 25 23 25 28 26 28 32 27 31 34 36 36 37 38 39 36 39 36 37 38
51 52 56 57 57 63 60 56 55 48 45 46 39 37 33 32 31 36 36 38 36 36 35 33 31 34 34 32 29 26 25 26 29 31 33 34 37 39 39 41 40 43 41 41 37 36 45
54 52 55 59 61 64 52 55 55 51 41 39 40 34 33 32 35 39 37 39 36 36 35 34 33 37 35 33 35 31 29 28 28 31 34 33 36 40 41 43 44 43 44 43 41 39 41
59 55 59 62 63 56 58 54 51 50 41 39 36 34 32 31 38 40 36 37 36 37 37 37 38 37 35 37 37 36 35 37 39 38 36 37 37 41 44 43 48 44 48 47 47 44 48
59 57 57 67 70 54 64 48 53 51 44 41 33 35 32 33 33 35 35 34 36 34 34 34 34 37 40 39 39 40 41 43 45 46 44 42 43 43 45 45 48 46 48 54 50 51 55
61 58 58 67 63 63 67 55 58 52 46 46 40 38 36 33 35 33 34 37 33 33 33 33 33 29 31 38 42 45 46 47 49 49 49 47 48 48 49 47 47 47 46 51 52 55 63
62 62 59 63 70 67 62 62 53 57 49 48 47 43 40 39 40 38 39 36 36 36 35 37 35 36 37 36 37 41 44 48 48 50 54 51 51 53 54 44 52 51 48 56 52 56 62
62 62 60 62 66 72 69 65 57 51 56 51 53 50 47 44 38 39 38 37 38 37 43 42 42 44 44 44 45 47 47 49 50 51 52 54 57 58 55 50 54 54 55 46 58 61 67
63 62 60 61 64 68 73 73 63 55 55 50 44 53 53 52 52 45 42 46 46 44 46 47 44 49 48 48 48 49 51 53 57 58 62 58 59 59 58 63 60 57 49 52 61 64 70
Wind_Direction
273 258 246 245 240 244 248 253 257 252 264 284 277 269 261 229 214 220 193 237 225 236 235 220 223 225 242 238 230 249 250 225 229 232 234 236 251 239 270 240 245 262 264 267 264 268 270
261 245 247 245 232 242 252 248 250 256 285 280 276 258 230 204 216 222 231 214 217 215 218 219 221 233 245 244 249 250 255 246 246 235 231 234 236 244 243 260 244 245 248 255 258 264 265
241 246 245 234 227 238 250 255 239 280 284 280 254 231 204 197 197 235 211 210 240 206 214 244 217 221 243 221 242 250 252 229 231 231 233 236 239 241 265 246 250 252 249 254 255 257 261
229 237 225 229 234 241 245 260 263 286 286 263 241 195 194 190 195 194 212 248 194 197 202 219 214 215 211 217 223 246 230 230 241 237 240 242 245 248 249 250 249 249 253 275 255 258 260
232 210 213 235 225 236 241 247 280 276 262 139 136 190 187 184 188 194 212 248 196 186 188 191 232 251 212 217 221 224 228 232 237 241 239 237 242 243 247 249 251 254 255 257 258 265 274
223 206 221 218 224 235 233 255 259 229 147 139 145 193 218 184 180 200 212 182 197 189 172 240 247 200 213 220 221 225 219 241 242 234 243 245 246 246 249 251 251 250 252 255 257 254 250
218 204 229 212 216 217 261 243 183 162 154 153 157 178 174 177 172 174 174 176 166 185 181 239 248 204 202 221 219 214 232 225 227 232 234 237 240 244 247 250 251 252 244 244 257 263 260
222 200 212 235 208 216 239 189 176 163 165 177 186 179 183 233 180 173 170 173 187 216 227 244 249 194 195 214 206 212 236 245 245 235 231 239 241 242 245 250 247 241 243 249 268 260 252
197 196 214 206 205 230 197 176 171 161 162 173 183 171 169 173 194 172 171 178 231 192 212 220 194 197 191 201 209 214 228 227 231 238 237 251 246 248 249 248 258 270 270 253 252 255 259
191 202 205 196 204 192 180 165 170 181 177 171 176 172 170 172 168 174 176 179 179 184 185 178 184 203 201 202 236 238 244 218 223 229 233 237 243 242 261 266 270 264 267 264 266 266 265
203 196 194 194 201 179 171 174 169 162 160 176 172 166 179 172 167 174 176 171 164 209 186 187 192 197 201 203 198 205 206 217 234 247 252 258 267 265 266 267 267 268 269 268 274 271 286
191 232 191 201 189 179 174 167 166 162 169 169 169 179 173 175 170 163 159 168 189 233 205 190 190 189 192 193 199 209 213 220 230 237 259 259 261 274 274 270 269 268 269 276 271 270 268
192 186 201 194 176 174 170 169 167 170 167 177 179 177 174 167 159 167 181 183 187 191 241 189 183 185 188 198 201 213 222 228 242 250 253 257 245 253 263 271 274 268 267 274 277 275 275
185 191 189 181 181 172 171 168 172 180 171 171 173 170 168 164 177 178 189 194 198 192 197 184 189 194 197 203 210 221 229 235 247 256 254 253 290 331 338 351 334 310 288 286 284 283 279
184 201 180 181 179 172 172 173 173 174 178 180 184 174 175 180 193 243 196 194 213 195 194 195 197 199 203 210 220 229 237 242 250 252 248 249 259 270 275 279 280 276 278 275 282 280 289
185 185 180 183 178 174 176 173 177 177 178 175 187 180 178 178 191 191 194 203 200 196 199 199 201 205 208 222 230 236 231 245 243 216 232 247 255 263 272 272 276 287 294 289 285 286 286
194 186 182 181 179 176 179 178 178 172 207 183 181 185 180 191 194 195 199 205 209 200 201 205 206 217 217 224 231 236 247 241 248 243 267 254 257 263 268 270 274 275 279 282 282 283 282
181 185 184 181 182 179 181 180 177 189 181 183 196 188 191 195 200 204 207 209 203 202 205 206 220 215 222 230 234 239 249 253 248 255 260 260 264 265 271 274 284 283 285 293 292 289 287
182 184 184 182 181 181 179 180 183 182 184 198 191 191 197 203 207 206 209 200 203 205 211 217 217 224 227 232 237 245 245 256 254 262 265 265 269 273 275 276 277 277 279 285 287 287 287
181 185 187 182 185 184 185 184 184 184 190 190 207 200 205 207 212 210 199 200 207 209 215 219 223 229 232 236 238 245 252 258 263 270 274 274 275 278 279 279 284 286 288 288 288 288 290
181 188 186 183 188 187 183 185 185 191 190 205 204 206 205 210 216 206 203 207 211 214 222 222 229 235 238 239 240 245 250 255 262 268 274 275 277 280 282 283 285 285 285 288 290 282 285
182 191 187 187 183 186 184 186 189 197 200 200 212 211 214 216 214 207 211 212 216 219 224 232 235 238 246 243 246 251 256 258 260 268 272 276 279 282 285 286 286 289 290 291 295 295 280
185 191 194 185 189 187 195 192 195 198 210 213 213 216 220 221 213 210 216 217 221 225 228 236 236 242 243 245 250 252 256 262 267 268 271 275 277 284 285 288 290 291 298 296 291 291 290
190 189 193 187 193 193 198 193 202 201 215 206 212 217 217 220 212 213 218 222 229 231 235 240 242 244 247 250 253 256 258 261 265 268 270 273 275 278 282 288 290 292 297 298 296 297 296
193 192 197 189 189 198 197 207 204 203 217 215 207 220 226 223 221 217 220 226 232 237 243 248 253 251 250 253 256 260 262 265 270 272 274 276 281 278 284 286 290 293 300 300 300 296 298
196 195 197 196 195 196 199 204 199 203 217 205 224 227 228 219 227 229 231 237 238 240 248 252 256 267 268 263 260 261 264 267 270 273 279 284 283 282 285 287 287 290 294 295 295 293 302
198 198 199 201 198 197 202 205 211 204 218 213 217 226 228 232 231 235 238 243 246 250 252 254 257 259 260 263 267 270 271 273 274 276 279 286 286 287 287 289 289 296 295 297 286 289 292
200 200 200 202 203 202 202 207 211 214 212 221 218 223 229 233 235 239 246 252 254 256 261 262 264 267 267 267 268 271 275 279 283 284 284 290 289 284 290 292 292 296 296 289 290 293 292
203 202 202 203 204 205 207 206 213 217 219 224 227 224 231 236 239 243 250 255 259 259 264 265 268 270 270 270 273 277 281 283 283 287 288 288 285 287 285 291 295 296 295 285 297 293 295